Location: Bannatyne
(13.0833°N, 59.5333°W)
Time: 15:37:33
(UTC+00:00)

Vanguard 3 - Pass Details

Date: 31 January 2020
Orbit: 508 x 3263 km, 33.3° (Epoch: 23 February)

Event Time Altitude Azimuth Distance (km) Brightness Sun altitude
Rises 14:39:17 0° 195° (SSW) 4,093 11.1 51.9°
Reaches altitude 10° 14:42:33 10° 179° (S) 3,514 11.0 52.4°
Maximum altitude 14:49:29 22° 131° (SE) 3,411 11.4 53.4°
Drops below altitude 10° 14:59:18 10° 88° (E) 5,214 11.6 54.7°
Sets 15:05:39 0° 76° (ENE) 6,680 11.9 55.4°
